Wind_Speed
29 29 29 29 29 29 26 25 26 26 26 26 26 25 24 25 25 24 21 19 19 18 18 17 17 16 15 14 13 12 11 10 9 8 8 7 7 7 7 7 8 8 9 10 10 11 13 13 14
31 31 31 31 30 28 25 25 27 27 26 26 26 25 24 25 25 23 21 20 19 19 19 18 18 16 15 14 13 12 10 9 9 8 7 7 7 7 7 8 8 8 9 10 11 12 14 14 15
34 34 33 32 30 27 25 26 27 28 28 27 25 25 26 26 24 23 22 21 20 19 19 19 18 17 15 14 13 11 10 9 9 8 8 8 8 8 8 8 8 9 10 11 12 13 14 15 16
37 37 36 34 31 28 27 27 28 29 29 27 27 27 27 25 23 23 22 21 21 20 19 19 18 17 16 14 13 12 11 10 9 9 8 8 8 8 8 8 9 10 11 12 13 14 14 16 17
40 39 39 36 32 29 29 29 30 30 29 28 28 28 27 25 24 24 23 22 21 20 19 19 18 17 16 15 13 12 11 10 9 9 8 8 8 8 8 9 10 11 12 13 14 15 16 17 18
42 42 41 37 33 31 30 30 31 30 30 29 29 28 28 26 25 24 24 23 22 21 20 20 19 18 17 15 14 13 11 11 10 9 9 9 9 9 9 10 11 12 13 14 15 16 17 19 20
44 44 42 39 36 34 32 32 32 31 31 30 30 29 29 27 26 25 24 23 22 22 21 20 20 19 17 16 15 13 12 11 11 10 10 9 9 9 10 10 12 13 14 15 16 17 19 20 22
46 47 45 42 38 35 34 34 34 33 32 31 31 31 30 28 27 26 25 24 23 22 22 21 20 19 18 17 15 14 13 12 11 11 10 10 10 10 11 12 13 14 15 16 17 19 20 22 23
49 50 48 43 40 37 36 36 35 34 34 33 33 32 31 30 29 27 26 24 23 22 22 22 21 20 19 18 16 15 14 13 12 11 11 11 11 12 12 13 14 15 16 17 18 20 22 23 24
52 52 48 43 42 40 39 38 37 36 35 35 34 33 32 30 29 28 27 26 24 24 23 22 22 21 20 18 17 16 15 13 13 12 12 12 12 13 13 14 15 16 17 19 20 22 23 24 25
54 52 48 46 44 43 42 41 39 38 37 36 35 34 33 31 31 30 28 27 26 25 24 23 22 21 20 19 18 16 15 14 14 13 13 13 13 14 14 15 16 17 19 20 22 23 24 25 25
55 54 51 48 47 46 45 44 43 41 38 37 36 35 34 33 32 31 30 28 27 25 25 23 23 22 21 20 18 17 16 15 15 14 14 14 14 15 15 16 17 19 20 21 23 24 24 25 26
56 55 54 51 50 49 47 47 45 43 40 39 39 38 36 35 34 33 31 30 28 27 25 24 23 23 22 21 20 18 17 16 16 15 15 15 15 15 16 17 18 20 21 22 23 24 25 26 27
56 56 56 55 53 51 50 49 48 45 43 42 41 40 38 36 35 34 33 31 29 28 27 26 25 24 23 22 21 19 18 18 17 16 16 16 16 16 17 18 19 21 22 23 24 25 26 26 27
57 58 58 57 55 53 53 53 50 46 45 44 43 41 39 38 37 36 34 33 31 30 29 27 26 25 24 23 22 21 20 19 18 18 17 17 17 18 18 19 20 22 23 24 25 25 26 26 27
58 59 60 58 56 55 56 55 51 49 48 46 45 43 41 40 39 38 36 34 33 32 30 29 28 26 25 24 23 22 21 20 19 19 19 19 19 19 19 20 22 23 24 24 25 25 26 27 28
60 59 59 59 58 57 58 57 53 51 50 48 47 45 44 42 41 40 38 36 35 33 32 31 29 28 27 26 25 23 22 21 21 20 20 20 20 20 21 22 23 23 24 25 26 26 27 28 29
59 59 59 59 58 58 59 59 55 54 52 51 48 47 46 45 43 41 40 38 36 35 34 32 31 30 29 27 26 25 24 23 22 21 21 21 21 22 22 23 24 24 25 26 26 27 28 29 30
57 58 59 58 57 59 61 60 58 56 55 53 51 49 48 46 45 44 42 40 39 37 35 33 32 31 30 28 27 26 26 25 24 23 22 23 23 23 24 24 25 25 26 26 27 28 29 30 31
59 58 59 58 58 59 62 62 60 59 58 55 53 51 50 48 47 46 44 43 40 38 37 35 34 32 31 30 29 28 27 26 25 24 24 24 24 25 25 25 26 26 27 27 28 29 30 31 32
60 60 58 57 58 59 61 64 63 61 60 58 55 53 52 50 49 47 46 44 42 40 38 36 35 34 33 32 31 30 29 27 27 26 26 26 26 26 26 27 27 28 28 29 29 30 31 32 33
58 58 57 57 58 60 61 64 64 62 62 60 57 55 54 52 51 49 48 46 44 41 39 38 37 36 35 34 33 31 30 29 29 28 28 28 27 27 28 28 28 29 29 30 30 31 32 33 34
54 54 55 56 57 60 62 65 65 63 63 62 58 56 55 53 52 50 49 47 45 43 41 40 39 38 36 35 34 33 31 31 31 30 29 29 29 29 29 29 29 30 30 31 32 32 33 34 34
50 51 53 55 57 61 61 63 67 64 62 61 59 57 55 54 53 51 50 48 46 45 43 42 40 39 37 36 35 34 33 33 32 31 31 30 30 30 30 30 30 31 31 32 33 33 34 35 35
50 50 50 53 58 61 59 62 67 63 61 60 59 58 56 54 53 52 51 50 48 46 44 43 41 40 39 38 36 35 34 34 34 33 32 32 31 31 31 31 31 32 32 33 33 34 35 35 35
50 51 52 51 55 58 59 62 65 60 59 59 59 58 56 54 54 53 52 51 49 47 45 44 43 41 40 39 38 37 36 35 35 34 34 33 33 33 33 32 32 33 33 33 34 35 35 36 36
51 52 51 50 50 52 58 60 61 58 57 57 58 58 57 54 54 54 53 52 50 48 46 45 44 43 41 40 39 38 37 36 36 35 35 34 34 34 34 33 33 34 33 34 35 35 36 36 36
49 49 50 52 52 52 53 56 58 57 56 55 55 57 57 55 54 54 53 53 51 49 47 46 45 44 42 41 40 39 38 38 37 36 36 36 35 35 34 34 34 34 34 34 35 36 36 37 37
50 50 51 52 52 50 50 52 53 53 54 54 53 53 54 55 54 54 53 52 52 51 49 48 46 45 44 43 41 40 39 39 38 37 37 37 36 36 35 35 35 35 35 35 35 36 37 37 38
47 50 50 50 51 51 49 48 45 46 48 50 51 51 52 53 53 54 53 52 52 51 50 48 47 45 44 44 43 42 41 40 38 38 37 37 37 36 36 35 35 35 35 36 36 36 37 38 38
Wind_Direction
239 238 237 236 236 235 232 230 229 227 227 226 227 228 229 231 232 232 228 227 227 228 229 229 230 230 230 232 236 238 241 243 247 250 255 261 268 274 278 283 288 293 298 300 303 305 307 308 308
238 237 237 236 236 234 231 228 227 227 226 226 227 227 227 230 231 231 229 227 227 228 229 229 230 229 230 232 233 236 238 241 243 246 252 258 265 273 279 284 289 294 298 301 304 306 307 307 308
238 237 237 236 235 233 230 227 225 226 226 226 225 226 226 229 229 229 228 227 227 228 229 228 227 227 227 227 228 231 233 236 240 246 252 259 265 271 278 285 291 295 299 303 306 307 308 308 308
237 237 236 235 234 231 228 226 225 225 227 225 225 225 227 227 227 228 228 227 226 227 226 224 223 223 224 223 225 229 231 234 240 248 254 261 267 273 280 286 293 297 302 305 307 308 309 309 310
236 236 236 234 232 230 227 226 226 225 226 224 225 225 226 226 226 227 227 227 226 225 224 221 220 220 222 222 224 227 230 235 241 247 256 263 267 272 278 286 293 299 303 306 308 309 309 310 311
235 235 235 233 231 229 227 226 228 227 225 224 224 225 225 224 224 225 225 225 225 223 222 220 219 219 220 221 223 227 232 237 241 247 256 262 266 272 280 289 296 301 304 306 308 308 309 310 311
235 234 234 231 229 227 226 226 227 227 225 224 225 225 224 222 222 223 224 224 224 223 222 219 218 218 219 221 224 227 231 236 241 247 254 261 267 274 284 292 297 301 304 306 307 309 310 311 311
235 234 231 229 228 226 226 226 226 226 226 224 225 224 223 221 221 222 224 224 223 222 220 218 218 218 219 221 223 227 232 237 242 247 254 262 270 279 286 292 297 301 303 306 307 309 311 311 312
234 233 230 228 228 226 226 226 225 225 226 225 225 224 223 221 221 222 224 224 222 220 219 219 219 219 219 221 224 229 234 238 243 248 256 265 273 280 286 291 296 301 303 305 308 310 311 312 313
233 233 231 229 228 226 226 225 225 225 225 225 225 225 224 222 222 223 224 224 222 220 219 220 220 220 221 223 226 230 234 239 244 250 258 267 275 282 287 292 297 300 303 305 308 310 311 312 313
233 233 231 228 227 226 225 225 224 224 224 224 225 226 224 222 222 223 224 223 221 220 220 221 221 221 222 224 227 231 235 241 246 253 262 269 277 283 288 292 296 300 303 306 308 309 311 312 313
232 232 230 227 227 226 225 225 224 223 223 224 224 223 222 221 221 222 222 221 220 220 220 221 221 223 224 226 229 233 237 243 248 255 263 270 277 284 288 292 296 300 304 306 308 309 311 311 312
230 230 230 227 226 226 225 225 224 223 222 223 224 223 222 221 221 221 221 221 220 220 221 222 223 225 226 228 232 234 239 244 250 257 264 271 278 284 289 293 297 301 305 307 309 309 310 311 312
230 230 229 227 225 225 225 224 224 222 222 223 224 223 221 222 221 222 222 222 221 222 223 223 225 227 229 231 234 237 242 247 252 258 266 273 279 284 290 294 298 301 304 306 308 309 310 311 312
229 229 228 227 226 225 226 225 224 223 223 223 224 223 222 221 222 222 223 223 222 223 224 225 227 228 231 234 237 240 245 249 254 260 266 272 279 284 289 293 297 301 304 306 307 308 309 310 311
228 229 228 226 226 225 227 225 223 223 224 224 224 223 223 222 222 223 224 224 224 224 225 228 229 230 233 236 239 242 246 249 254 261 267 273 278 284 288 292 297 300 303 305 306 307 309 310 311
228 228 229 226 226 226 227 226 222 224 224 224 224 224 224 223 223 224 225 226 226 226 227 229 230 232 235 238 240 243 246 250 256 262 268 274 278 283 287 291 295 299 302 304 305 306 308 309 310
229 230 229 228 226 227 228 227 223 224 224 224 224 224 224 224 224 225 226 227 227 228 229 230 232 234 237 239 241 244 247 252 257 263 268 273 277 282 286 289 294 297 300 302 304 305 307 308 310
229 230 230 228 226 227 227 227 225 224 224 224 224 224 224 224 225 226 226 227 228 229 230 231 233 236 238 240 242 245 248 253 259 263 268 272 277 281 285 288 292 295 298 301 302 305 306 308 309
227 229 229 228 227 228 228 227 225 224 224 224 224 224 224 225 225 226 227 228 229 230 232 232 234 236 238 240 243 245 248 253 259 263 267 271 275 280 284 287 290 294 297 299 301 304 305 307 308
226 227 228 228 228 228 230 229 226 225 225 224 224 224 225 226 226 227 228 229 230 231 233 234 235 237 239 241 242 245 249 254 259 263 266 270 275 279 283 286 289 292 294 297 300 302 304 306 308
226 226 228 229 229 229 229 231 226 225 225 224 224 224 224 226 227 228 229 230 231 232 234 235 236 238 239 241 244 247 251 254 258 262 266 270 274 278 282 285 287 290 293 296 298 301 303 305 307
225 225 228 228 229 231 229 232 228 226 226 225 224 225 225 226 228 229 229 231 232 233 234 236 237 238 239 242 245 248 251 254 258 262 266 270 274 277 280 283 287 289 292 295 297 300 303 305 306
223 224 226 228 229 230 228 231 231 227 226 226 225 226 226 227 229 230 231 231 232 233 235 236 237 239 241 243 246 249 252 255 258 262 266 270 274 276 279 283 286 288 291 294 296 300 302 304 305
219 220 223 225 227 230 227 231 231 227 227 228 227 227 227 228 229 230 231 232 233 234 235 237 238 239 241 243 246 248 252 255 259 262 266 269 272 275 278 282 284 287 290 293 296 299 301 302 304
219 220 222 225 229 230 230 232 230 229 230 229 229 229 228 228 229 231 232 233 233 235 235 237 238 239 241 243 246 249 252 255 258 262 265 268 272 275 278 280 283 286 289 292 295 297 299 301 303
221 222 221 225 229 231 233 233 232 230 230 230 230 230 229 228 229 231 232 233 234 235 236 237 238 239 241 243 246 249 252 255 258 262 264 267 271 274 277 279 282 285 287 291 294 296 298 300 302
223 222 220 223 227 231 234 233 232 232 232 231 231 231 231 230 230 231 232 233 234 235 236 237 238 239 241 244 246 249 252 255 258 261 264 267 270 273 275 278 281 283 286 289 292 295 297 299 301
220 220 221 224 226 230 233 234 233 234 233 233 233 232 232 231 231 231 233 234 235 236 236 238 239 241 242 244 246 249 252 255 258 261 264 267 270 272 274 277 280 283 286 289 291 293 296 298 300
223 221 221 223 226 227 229 230 229 232 232 232 232 232 232 231 231 232 233 234 236 236 236 238 239 241 242 244 246 248 251 255 258 260 263 266 269 271 274 276 279 283 285 288 291 293 295 297 299
Height
5812 5813 5814 5816 5818 5820 5823 5827 5829 5831 5834 5836 5838 5841 5843 5845 5847 5850 5853 5854 5856 5858 5859 5861 5863 5865 5867 5868 5870 5871 5872 5873 5873 5874 5875 5875 5875 5875 5876 5876 5876 5876 5876 5875 5875 5874 5873 5872 5871
5806 5808 5809 5811 5813 5816 5820 5823 5825 5827 5830 5832 5834 5838 5839 5840 5843 5845 5848 5851 5853 5855 5857 5859 5861 5863 5864 5866 5868 5869 5870 5871 5872 5873 5873 5874 5874 5874 5874 5874 5874 5874 5874 5874 5873 5872 5872 5871 5870
5800 5801 5803 5805 5808 5812 5817 5818 5820 5822 5825 5828 5831 5834 5836 5837 5839 5842 5845 5847 5850 5852 5854 5856 5858 5860 5862 5864 5866 5867 5868 5869 5870 5871 5872 5872 5873 5873 5873 5873 5873 5873 5872 5872 5871 5871 5870 5869 5867
5793 5795 5797 5801 5804 5808 5811 5814 5815 5818 5821 5824 5827 5829 5831 5834 5837 5840 5842 5844 5847 5849 5851 5853 5855 5858 5860 5862 5863 5865 5866 5867 5868 5869 5870 5870 5871 5871 5871 5871 5871 5871 5871 5870 5869 5869 5868 5866 5865
5785 5787 5791 5794 5799 5803 5806 5808 5810 5813 5816 5819 5822 5825 5827 5830 5833 5836 5838 5841 5843 5846 5848 5850 5853 5855 5857 5859 5861 5863 5864 5865 5866 5867 5868 5869 5869 5869 5870 5870 5870 5869 5869 5868 5867 5866 5865 5864 5862
5777 5780 5784 5788 5794 5797 5801 5803 5805 5808 5812 5815 5817 5820 5823 5826 5829 5832 5834 5837 5840 5843 5845 5847 5850 5852 5855 5857 5859 5860 5862 5863 5864 5865 5866 5867 5867 5867 5868 5868 5868 5867 5867 5866 5865 5864 5863 5861 5859
5769 5772 5776 5781 5786 5791 5795 5797 5800 5803 5807 5810 5813 5816 5818 5822 5825 5828 5831 5834 5837 5839 5842 5844 5847 5849 5852 5854 5856 5858 5860 5861 5862 5863 5864 5865 5865 5865 5866 5866 5865 5865 5864 5863 5862 5861 5860 5858 5856
5760 5763 5767 5774 5779 5785 5789 5791 5794 5798 5801 5805 5808 5811 5814 5818 5821 5824 5827 5830 5833 5836 5838 5841 5844 5847 5849 5851 5854 5855 5857 5859 5860 5861 5862 5863 5863 5863 5863 5863 5863 5862 5861 5860 5859 5858 5856 5855 5853
5748 5753 5759 5768 5773 5779 5781 5785 5788 5792 5795 5799 5802 5806 5809 5813 5817 5820 5823 5827 5830 5832 5835 5838 5841 5843 5846 5849 5851 5853 5854 5856 5857 5858 5859 5860 5860 5861 5860 5860 5860 5859 5859 5857 5856 5855 5853 5851 5849
5738 5743 5754 5762 5766 5770 5773 5777 5782 5785 5789 5793 5797 5801 5805 5809 5813 5816 5819 5823 5826 5829 5832 5834 5837 5840 5843 5846 5848 5850 5852 5853 5854 5856 5857 5857 5858 5858 5858 5857 5857 5856 5855 5854 5853 5851 5849 5847 5845
5729 5736 5745 5751 5756 5761 5765 5769 5774 5778 5783 5788 5792 5796 5800 5804 5808 5811 5815 5818 5822 5825 5828 5831 5834 5837 5840 5842 5845 5847 5848 5850 5851 5853 5854 5854 5855 5855 5855 5854 5854 5853 5852 5850 5849 5847 5845 5843 5841
5719 5727 5734 5741 5746 5751 5757 5761 5766 5771 5778 5782 5785 5790 5794 5799 5803 5806 5810 5814 5817 5821 5824 5827 5830 5833 5836 5839 5841 5843 5845 5847 5848 5849 5850 5851 5852 5852 5851 5851 5850 5849 5848 5847 5845 5843 5841 5839 5837
5707 5716 5723 5730 5736 5742 5748 5753 5758 5764 5770 5775 5779 5783 5788 5793 5797 5801 5805 5809 5813 5817 5820 5823 5827 5830 5833 5835 5838 5840 5842 5843 5845 5846 5847 5848 5848 5848 5848 5847 5846 5845 5844 5842 5841 5839 5837 5835 5833
5697 5704 5711 5718 5725 5732 5738 5744 5749 5757 5763 5767 5772 5777 5783 5788 5792 5796 5800 5805 5809 5812 5816 5819 5822 5826 5829 5831 5834 5836 5838 5840 5841 5842 5843 5844 5844 5844 5844 5843 5842 5841 5840 5838 5837 5835 5833 5830 5828
5684 5691 5698 5707 5716 5723 5728 5733 5742 5751 5755 5760 5765 5770 5776 5782 5786 5791 5795 5800 5804 5807 5811 5814 5818 5821 5824 5827 5829 5832 5834 5836 5837 5838 5839 5840 5840 5840 5839 5839 5838 5837 5835 5834 5832 5830 5828 5826 5823
5671 5677 5686 5698 5706 5713 5718 5725 5736 5741 5746 5752 5758 5764 5770 5775 5780 5785 5790 5794 5798 5802 5806 5810 5813 5817 5820 5822 5825 5827 5829 5831 5833 5834 5834 5835 5835 5835 5835 5834 5834 5832 5831 5829 5828 5826 5824 5821 5819
5657 5665 5676 5688 5695 5702 5707 5716 5727 5732 5737 5744 5750 5756 5762 5768 5774 5779 5784 5789 5793 5797 5801 5805 5808 5812 5815 5818 5820 5823 5825 5827 5828 5829 5830 5830 5831 5831 5830 5830 5829 5828 5826 5824 5823 5821 5819 5816 5814
5650 5659 5667 5676 5686 5691 5696 5706 5716 5722 5728 5735 5742 5748 5755 5761 5768 5773 5778 5783 5787 5791 5795 5800 5803 5806 5810 5813 5816 5818 5820 5822 5823 5824 5825 5825 5826 5826 5825 5825 5824 5823 5821 5819 5818 5816 5813 5811 5808
5640 5647 5655 5665 5674 5679 5685 5694 5704 5711 5718 5725 5733 5740 5747 5754 5760 5766 5771 5776 5780 5785 5790 5794 5798 5801 5805 5808 5811 5813 5815 5817 5818 5819 5820 5820 5820 5820 5820 5819 5818 5817 5816 5814 5812 5810 5808 5806 5803
5626 5634 5643 5653 5661 5667 5673 5681 5691 5700 5708 5716 5724 5731 5739 5746 5752 5758 5764 5769 5774 5779 5784 5788 5792 5796 5799 5803 5805 5807 5809 5811 5813 5814 5815 5815 5815 5815 5815 5814 5813 5812 5810 5809 5807 5805 5803 5800 5797
5613 5623 5634 5642 5650 5655 5662 5668 5679 5689 5697 5706 5714 5722 5730 5737 5744 5750 5756 5762 5767 5773 5777 5782 5786 5789 5793 5796 5798 5801 5804 5806 5807 5808 5809 5809 5809 5809 5809 5808 5807 5806 5805 5803 5801 5799 5797 5794 5791
5603 5616 5624 5631 5637 5643 5650 5655 5668 5678 5686 5695 5705 5713 5721 5729 5735 5742 5748 5754 5760 5766 5771 5775 5779 5782 5786 5789 5792 5795 5798 5800 5801 5802 5803 5803 5804 5804 5803 5802 5801 5800 5799 5797 5795 5793 5791 5788 5785
5597 5608 5614 5620 5626 5631 5638 5644 5656 5666 5675 5686 5697 5705 5713 5720 5727 5734 5740 5747 5753 5758 5763 5767 5771 5775 5779 5782 5786 5789 5791 5793 5794 5795 5797 5797 5798 5797 5797 5796 5795 5794 5793 5791 5789 5787 5784 5781 5778
5588 5596 5602 5607 5612 5616 5627 5633 5642 5655 5668 5679 5688 5696 5704 5712 5719 5726 5732 5738 5744 5750 5755 5759 5764 5768 5772 5775 5778 5781 5784 5786 5787 5789 5790 5791 5791 5791 5791 5790 5789 5788 5786 5784 5782 5780 5777 5774 5771
5576 5583 5590 5594 5597 5605 5619 5621 5631 5650 5660 5669 5679 5687 5695 5703 5710 5717 5723 5729 5735 5741 5747 5751 5756 5760 5764 5768 5771 5774 5776 5778 5780 5782 5783 5784 5784 5784 5784 5783 5782 5781 5779 5777 5775 5773 5770 5767 5764
5566 5573 5581 5587 5593 5601 5608 5610 5626 5642 5651 5659 5668 5676 5685 5693 5701 5708 5714 5720 5727 5733 5738 5743 5748 5752 5756 5760 5764 5766 5768 5771 5773 5774 5776 5777 5777 5777 5776 5776 5775 5774 5772 5770 5768 5766 5763 5760 5757
5556 5562 5574 5580 5585 5591 5596 5607 5619 5630 5638 5648 5657 5666 5675 5684 5691 5698 5704 5711 5717 5724 5729 5735 5739 5744 5748 5752 5755 5758 5761 5763 5765 5767 5768 5769 5769 5769 5769 5768 5767 5766 5765 5763 5761 5758 5755 5753 5749
5548 5556 5563 5569 5575 5581 5589 5598 5609 5621 5630 5640 5648 5657 5666 5674 5681 5688 5695 5701 5708 5714 5720 5725 5730 5735 5739 5743 5747 5750 5753 5755 5757 5758 5760 5761 5761 5761 5761 5761 5760 5758 5757 5755 5753 5751 5748 5745 5742
5539 5546 5553 5561 5568 5576 5583 5594 5604 5613 5622 5630 5639 5647 5655 5663 5671 5678 5685 5692 5698 5704 5710 5716 5721 5726 5730 5734 5738 5741 5744 5746 5748 5750 5751 5752 5753 5753 5753 5752 5752 5750 5749 5747 5745 5742 5740 5737 5734
5531 5538 5546 5553 5560 5568 5576 5588 5595 5602 5610 5619 5628 5636 5644 5651 5659 5667 5674 5681 5687 5694 5701 5706 5712 5717 5721 5725 5729 5732 5735 5737 5739 5741 5743 5744 5744 5744 5744 5744 5743 5742 5741 5739 5737 5734 5731 5729 5725